Location: Coupvray
(48.8929°N, 2.7967°E)
Time: 15:56:19
(UTC+00:00)

CZ-4C R/B - Visible Passes

Search period start: 19 October 2020 00:00
Search period end: 29 October 2020 00:00
Orbit: 627 x 1375 km, 63.4° (Epoch: 18 October)

Date Brightness Start Highest point End Pass type
(mag) Time Alt. Az. Time Alt. Az. Time Alt. Az.
19 Oct 4.2 18:31:00 10° NW 18:35:41 23° N 18:40:29 12° NE visible
19 Oct 4.0 20:20:32 10° NW 20:25:38 30° NNE 20:25:38 30° NNE visible
19 Oct 4.8 22:08:59 10° NW 22:10:49 20° NW 22:10:49 20° NW visible
20 Oct 3.9 17:14:44 10° WNW 17:19:28 26° NNW 17:24:58 10° NE visible
20 Oct 4.1 19:05:10 10° NW 19:10:10 24° N 19:12:49 19° NE visible
20 Oct 4.0 20:54:02 10° NW 20:58:00 33° N 20:58:00 33° N visible
20 Oct 5.2 22:42:28 10° NW 22:43:10 14° NW 22:43:10 14° NW visible
21 Oct 4.1 17:49:13 10° WNW 17:53:53 23° N 17:59:13 10° NE visible
21 Oct 3.9 19:38:57 10° NW 19:44:34 29° NNE 19:45:12 28° NNE visible
21 Oct 4.4 21:27:26 10° NW 21:30:22 28° NNW 21:30:22 28° NNW visible
22 Oct 4.1 18:23:28 10° NW 18:28:22 23° N 18:32:25 15° NE visible
22 Oct 3.7 20:12:30 10° NW 20:17:35 37° N 20:17:35 37° N visible
22 Oct 4.8 22:00:53 10° NW 22:02:46 21° NW 22:02:46 21° NW visible
23 Oct 4.0 17:07:25 10° WNW 17:12:04 23° N 17:17:25 10° NE visible
23 Oct 4.0 18:57:22 10° NW 19:02:48 27° NNE 19:04:50 24° NE visible
23 Oct 3.9 20:45:55 10° NW 20:50:00 38° NNW 20:50:00 38° NNW visible
23 Oct 5.2 22:34:31 10° NW 22:35:10 13° NW 22:35:10 13° NW visible
24 Oct 4.1 17:41:46 10° NW 17:46:33 23° N 17:52:02 10° NE visible
24 Oct 3.6 19:30:57 10° NW 19:37:04 36° NNE 19:37:16 36° NNE visible
24 Oct 4.3 21:19:20 10° NW 21:22:27 30° NW 21:22:27 30° NW visible
25 Oct 4.0 18:15:44 10° NW 18:21:01 26° NNE 18:24:33 18° NE visible
25 Oct 3.4 20:04:23 10° NW 20:09:44 47° N 20:09:44 47° N visible
25 Oct 4.8 21:52:54 10° NW 21:54:55 21° NW 21:54:55 21° NW visible
26 Oct 3.7 18:49:23 10° NW 18:55:20 33° NNE 18:57:04 30° NE visible
26 Oct 3.7 20:37:48 10° NW 20:42:14 44° NNW 20:42:14 44° NNW visible
26 Oct 5.3 22:26:50 10° WNW 22:27:25 12° WNW 22:27:25 12° WNW visible
27 Oct 4.0 17:34:05 10° NW 17:39:13 25° NNE 17:44:25 12° ENE visible
27 Oct 3.2 19:22:51 10° NW 19:29:26 47° NE 19:29:36 47° NE visible
27 Oct 4.3 21:11:19 10° NW 21:14:47 32° NW 21:14:47 32° NW visible
28 Oct 3.7 18:07:49 10° NW 18:13:35 31° NNE 18:17:00 22° ENE visible
28 Oct 3.1 19:56:15 10° NW 20:02:11 63° N 20:02:11 63° N visible
28 Oct 4.9 21:45:07 10° NW 21:47:22 20° WNW 21:47:22 20° WNW visible
